Portada
METAR-TAF:

METAR-TAF

Aeroports :

Rio de Janeiro, Rio de Janeiro, Brasil

latitud: 22-59S, longitud: 043-22W, altitud: 3 m

Observació

L'informe es va fer fa 51 minuts, a les 19:00 UTC
Vent 6 kt del Est
Temperatura 23°C
Humitat 83%
Pressió 1015 hPa
Visibilitat 10 km o més
Núvols disperses a una alçada de 2000 ft
Cel cobert a una alçada de 3000 ft

METAR: SBJR 181900Z 10006KT 9999 SCT020 OVC030 23/20 Q1015

Hora: 17:51 (19:51 UTC)


TAF: manca

Observacions i pronòstics meteorològics de més de 4000 aeroports (METAR i TAF).

Les estacions disponibles són els punts grocs i vermells al mapa.

Posi el ratolí al punt desitjat per veure el nom de l'estació.

Feu clic per veure les observacions i els pronòstics meteorològics.

Per canviar el mapa: feu clic els botons verds amb una creu de color negre per apropar; al botó verd amb un guió per allunyar la imatge; o en les fletxes verdes per a mapes adjacents.


METAR-TAF: